TimeMDT,TemperatureF,Dew PointF,Humidity,Sea Level PressureIn,VisibilityMPH,Wind Direction,Wind SpeedMPH,Gust SpeedMPH,PrecipitationIn,Events,Conditions,WindDirDegrees,DateUTC
12:56 AM,46.9,41.0,80,30.14,-9999.0,Calm,Calm,-,N/A,,Unknown,0,2013-07-30 06:56:00
2:56 AM,41.0,39.0,93,30.13,-9999.0,WNW,3.5,-,N/A,,Unknown,300,2013-07-30 08:56:00
3:56 AM,39.0,37.9,96,30.14,-9999.0,Calm,Calm,-,N/A,,Unknown,0,2013-07-30 09:56:00
4:56 AM,39.0,37.9,96,30.16,-9999.0,WNW,3.5,-,N/A,,Unknown,290,2013-07-30 10:56:00
5:56 AM,37.9,37.0,97,30.19,-9999.0,Calm,Calm,-,N/A,,Unknown,0,2013-07-30 11:56:00
6:56 AM,39.0,37.9,96,30.20,-9999.0,NW,3.5,-,N/A,,Unknown,310,2013-07-30 12:56:00
7:56 AM,44.1,43.0,96,30.23,-9999.0,Calm,Calm,-,N/A,,Unknown,0,2013-07-30 13:56:00
8:56 AM,50.0,46.9,89,30.23,-9999.0,Calm,Calm,-,N/A,,Unknown,0,2013-07-30 14:56:00
9:56 AM,53.1,46.0,77,30.25,-9999.0,Calm,Calm,-,N/A,,Unknown,0,2013-07-30 15:56:00
10:56 AM,55.0,51.1,86,30.24,-9999.0,Calm,Calm,-,0.22,,Unknown,0,2013-07-30 16:56:00
11:56 AM,55.9,46.0,69,30.25,-9999.0,Calm,Calm,-,N/A,,Unknown,0,2013-07-30 17:56:00
12:56 PM,60.1,45.0,57,30.22,-9999.0,ESE,4.6,-,N/A,,Unknown,120,2013-07-30 18:56:00
1:56 PM,60.1,46.9,62,30.21,-9999.0,Calm,Calm,-,N/A,,Unknown,0,2013-07-30 19:56:00
2:56 PM,66.0,43.0,43,30.16,-9999.0,Variable,3.5,-,N/A,,Unknown,0,2013-07-30 20:56:00
3:56 PM,71.1,34.0,26,30.14,-9999.0,West,11.5,24.2,N/A,,Unknown,270,2013-07-30 21:56:00
4:52 PM,55.4,39.2,54,30.43,-9999.0,NW,13.8,32.2,N/A,,Unknown,320,2013-07-30 22:52:00
4:56 PM,55.9,41.0,57,30.29,-9999.0,NW,11.5,31.1,N/A,,Unknown,320,2013-07-30 22:56:00
5:56 PM,51.1,44.1,77,30.33,-9999.0,Calm,Calm,-,0.01,,Unknown,0,2013-07-30 23:56:00
6:56 PM,55.9,44.1,64,30.27,-9999.0,Calm,Calm,-,N/A,,Unknown,0,2013-07-31 00:56:00
7:56 PM,55.0,44.1,67,30.29,-9999.0,Calm,Calm,-,N/A,,Unknown,0,2013-07-31 01:56:00
8:56 PM,53.1,46.0,77,30.26,-9999.0,NNE,3.5,-,N/A,,Unknown,30,2013-07-31 02:56:00
9:56 PM,48.9,45.0,86,30.27,-9999.0,NNW,3.5,-,N/A,,Unknown,330,2013-07-31 03:56:00
10:56 PM,46.0,43.0,89,30.28,-9999.0,NW,3.5,-,N/A,,Unknown,310,2013-07-31 04:56:00
11:56 PM,45.0,43.0,93,30.30,-9999.0,Calm,Calm,-,N/A,,Unknown,0,2013-07-31 05:56:00